FW5955 Weather Reports


Display with metric or nautical units.
time (UTC)temp
F
wind
direction
speed
MPH
gust
MPH
rain 1hr
in
rain 24hr
in
rain mn
in
humidity
%
barometer
mb
20260507211533 47 262 3.0 8.0 0.00 0.72 0.72 95 1001.8
20260507210024 47 275 5.0 8.0 0.00 0.72 0.72 95 1002.0
20260507204522 47 250 5.0 12.0 0.00 0.72 0.72 95 1002.0
20260507203022 47 268 5.0 10.0 0.00 0.72 0.72 95 1002.0
20260507201512 47 266 5.0 9.0 0.00 0.72 0.72 96 1002.0
20260507200004 47 254 4.0 10.0 0.00 0.72 0.72 96 1002.0
20260507194504 46 226 5.0 12.0 0.00 0.72 0.72 95 1002.1
20260507193005 46 245 7.0 12.0 0.01 0.72 0.72 95 1002.3
20260507191504 46 262 6.0 15.0 0.01 0.72 0.72 96 1002.5
20260507190005 46 240 6.0 11.0 0.02 0.72 0.72 96 1002.3
20260507184502 46 280 4.0 12.0 0.02 0.72 0.72 96 1002.0
20260507183001 45 274 8.0 14.0 0.02 0.71 0.71 96 1002.2
20260507181559 45 262 8.0 14.0 0.06 0.71 0.71 95 1002.0
20260507180106 45 188 3.0 12.0 0.06 0.70 0.70 95 1001.4
20260507174625 46 214 6.0 11.0 0.07 0.69 0.69 96 1002.1
20260507173055 47 229 6.0 11.0 0.09 0.69 0.69 96 1002.4
20260507171605 46 230 6.0 14.0 0.09 0.65 0.65 96 1004.0
20260507170051 46 241 5.0 12.0 0.20 0.65 0.65 96 1003.2
20260507164554 46 236 4.0 11.0 0.30 0.62 0.62 96 1003.1
20260507163050 45 254 5.0 8.0 0.28 0.59 0.59 95 1003.4
20260507161552 46 219 4.0 8.0 0.34 0.55 0.55 96 1003.6
20260507160110 46 314 2.0 12.0 0.23 0.43 0.43 96 1003.8
20260507154547 46 258 9.0 14.0 0.11 0.31 0.31 96 1004.9
20260507153045 46 267 4.0 9.0 0.09 0.30 0.30 96 1004.4
20260507151544 46 245 5.0 13.0 0.01 0.21 0.21 96 1004.7
20260507150044 46 223 8.0 15.0 0.00 0.20 0.20 96 1004.6
20260507144543 46 257 9.0 18.0 0.00 0.20 0.20 96 1004.6
20260507143040 47 241 8.0 15.0 0.00 0.20 0.20 96 1005.1
20260507141538 46 257 7.0 14.0 0.01 0.20 0.20 96 1005.2
20260507140138 46 224 7.0 15.0 0.01 0.20 0.20 96 1005.2
20260507134535 46 252 7.0 14.0 0.01 0.20 0.20 95 1005.8
20260507133034 46 214 7.0 16.0 0.02 0.20 0.20 95 1005.9
20260507131603 46 257 8.0 13.0 0.02 0.20 0.20 95 1006.1
20260507130030 47 226 7.0 16.0 0.02 0.20 0.20 95 1006.2
20260507124531 47 221 8.0 16.0 0.04 0.20 0.20 95 1006.7
20260507123035 47 242 7.0 17.0 0.03 0.18 0.18 95 1006.9
20260507121526 47 233 8.0 16.0 0.03 0.17 0.17 95 1007.0
20260507120031 46 243 8.0 15.0 0.06 0.17 0.17 95 1006.8
20260507114525 46 221 7.0 12.0 0.06 0.16 0.16 95 1007.0
20260507113054 46 254 7.0 15.0 0.05 0.15 0.15 95 1007.3
20260507111525 45 222 5.0 12.0 0.05 0.14 0.14 95 1007.2
20260507110020 46 271 6.0 13.0 0.02 0.11 0.11 95 1007.6
20260507104520 46 239 6.0 13.0 0.02 0.10 0.10 95 1007.5
20260507103018 46 257 6.0 13.0 0.03 0.10 0.10 95 1007.5
20260507101523 46 258 7.0 17.0 0.04 0.09 0.09 94 1007.8
20260507100029 46 248 8.0 18.0 0.06 0.09 0.09 95 1008.2
20260507094514 45 285 9.0 16.0 0.07 0.09 0.09 94 1008.2
20260507093014 45 267 7.0 16.0 0.06 0.07 0.07 94 1008.3
20260507091510 45 250 3.0 11.0 0.03 0.05 0.05 94 1008.1
20260507090008 44 259 5.0 11.0 0.01 0.02 0.02 94 1008.2
20260507084509 44 263 4.0 12.0 0.02 0.02 0.02 93 1008.4
20260507083010 44 228 3.0 10.0 0.02 0.02 0.02 93 1008.5
20260507081600 44 185 5.0 14.0 0.02 0.02 0.02 93 1009.0
20260507080057 44 212 5.0 11.0 0.02 0.02 0.02 93 1009.2
20260507074557 44 235 3.0 8.0 0.00 0.00 0.00 92 1009.3
20260507073058 45 278 3.0 8.0 0.00 0.00 0.00 91 1009.7
20260507071552 45 260 5.0 10.0 0.00 0.00 0.00 91 1009.9
20260507070105 45 167 4.0 10.0 0.00 0.00 0.00 91 1009.9
20260507064553 46 232 6.0 11.0 0.00 0.00 0.00 91 1010.0
20260507063054 46 272 4.0 12.0 0.00 0.00 0.00 91 1010.1
20260507061547 46 243 7.0 12.0 0.00 0.00 0.00 92 1010.8
20260507060047 45 265 6.0 13.0 0.00 0.00 0.00 92 1010.7
20260507054544 45 232 5.0 11.0 0.00 0.00 0.00 92 1010.9
20260507053039 45 250 4.0 10.0 0.00 0.00 0.00 92 1011.5
20260507051535 45 219 5.0 11.0 0.00 0.00 0.00 91 1012.0
20260507050057 45 265 6.0 13.0 0.00 0.00 0.00 91 1012.5
20260507044536 46 205 5.0 13.0 0.00 0.00 0.00 91 1012.7
20260507043027 46 262 7.0 14.0 0.00 0.00 0.00 91 1013.0
20260507041526 45 285 6.0 11.0 0.00 0.00 0.00 92 1013.1
20260507040023 46 244 4.0 16.0 0.00 0.00 0.00 90 1013.4
20260507034522 45 271 4.0 9.0 0.00 0.00 0.00 91 1013.5
20260507033021 46 227 4.0 9.0 0.00 0.00 0.00 90 1013.6
20260507031511 47 225 4.0 10.0 0.00 0.00 0.00 90 1014.1
20260507030009 48 123 6.0 12.0 0.00 0.00 0.00 89 1014.2
20260507024506 48 219 7.0 13.0 0.00 0.00 0.00 88 1014.6
20260507023003 48 219 5.0 14.0 0.00 0.00 0.00 89 1015.1
20260507021613 47 242 5.0 14.0 0.00 0.00 0.00 90 1015.4
20260507020058 47 249 4.0 9.0 0.00 0.00 0.00 90 1015.6
20260507014559 47 252 4.0 11.0 0.00 0.00 0.00 91 1015.8
20260507013054 46 226 5.0 9.0 0.00 0.00 0.00 91 1016.0
20260507011557 46 242 6.0 12.0 0.00 0.00 0.00 91 1016.1
20260507010052 45 223 4.0 9.0 0.00 0.00 0.00 91 1016.3
20260507004551 46 169 3.0 9.0 0.00 0.00 0.00 90 1016.5
20260507003049 47 233 3.0 10.0 0.00 0.00 0.00 88 1016.5
20260507001548 48 235 7.0 13.0 0.00 0.00 0.00 89 1016.6
20260507000048 47 209 5.0 10.0 0.00 0.00 0.00 89 1016.6
20260506234604 48 224 5.0 11.0 0.00 0.00 0.00 88 1016.4
20260506233048 48 248 6.0 10.0 0.00 0.00 0.00 88 1016.3
20260506231547 48 243 5.0 11.0 0.00 0.00 0.00 88 1016.4
20260506230046 48 273 8.0 13.0 0.00 0.00 0.00 87 1016.5
20260506224548 49 219 7.0 11.0 0.00 0.00 0.00 86 1016.6
20260506223050 48 250 8.0 15.0 0.00 0.00 0.00 86 1016.7
20260506221544 48 230 8.0 13.0 0.00 0.00 0.00 86 1016.8
20260506220044 48 283 7.0 14.0 0.00 0.00 0.00 86 1016.6
20260506214544 47 207 6.0 13.0 0.00 0.00 0.00 86 1016.5
20260506213043 48 249 8.0 17.0 0.00 0.00 0.00 86 1016.6